CHINASAT 2C (ZX 2C) (41021 NORAD) Tracking and Keplerian Element Data

This shows tracking and keplerian element data for the satellite.

Feedback or suggestion? Click here.




ElementValue
Catalog41021
NameCHINASAT 2C (ZX 2C)
Epoch Orbit1069
Epoch Day265.84025166
Epoch Year2018
RAAN324.3449
Inclination0.0333
Eccentricity0.0001492
Argument of Perigee336.136
Mean Anonmoly107.0884
Mean Motion1.00270959
Decay Rate-3.37E-06
L11 41021U 15063A 18265.84025166 -.00000337 00000-0 00000-0 0 9991
L22 41021 0.0333 324.3449 0001492 336.1360 107.0884 1.00270959 10693

Live tracking and technical data element details for CHINASAT 2C (ZX 2C) (NORAD 41021). CHINASAT 2C (ZX 2C) can be tracked NOW for your location showing map with azimuth and elevation plus other details from your city location.

Track the satellite on the map from your city or location and see movement details for azimuth, elevation, latitude, longitude, range, height, and movement on the map or in text.







IsCatalogInMostPopularTable: catalog: 41021, numindb: 124
Update: records affected: 1



GetName: 41021 CHINASAT 2C (ZX 2C)

Hit Count: updated at: Tue, 25 Sep 2018 14:40:57 GMT